This is the latest recevied weather packets stored in our database for station/object M0JUI-1. If no packets are shown the sender has not sent any weather packets the latest 10 day(s).
| Time | Temp. | Humidity | Pressure | Rain* | Wind** | Luminosity | Snow |
|---|---|---|---|---|---|---|---|
| 1788429237 | 20° C | 12% | 1015.3 hPa | 0 mm | - | 284 W/m² | - |
| 1788428937 | 20° C | 12% | 1015.4 hPa | 0 mm | - | 297 W/m² | - |
| 1788428649 | 20° C | 12% | 1015.2 hPa | 0 mm | - | 575 W/m² | - |
| 1788428337 | 19.44° C | 13% | 1015.5 hPa | 0 mm | - | 508 W/m² | - |
| 1788428038 | 19.44° C | 14% | 1015.5 hPa | 0 mm | - | 408 W/m² | - |
| 1788427737 | 19.44° C | 14% | 1015.5 hPa | 0 mm | - | 543 W/m² | - |
| 1788427425 | 19.44° C | 14% | 1015.2 hPa | 0 mm | - | 490 W/m² | - |
| 1788427125 | 19.44° C | 14% | 1015.4 hPa | 0 mm | - | 390 W/m² | - |
| 1788426825 | 18.89° C | 15% | 1015.4 hPa | 0 mm | - | 409 W/m² | - |
| 1788426513 | 18.89° C | 14% | 1015.4 hPa | 0 mm | - | 399 W/m² | - |
| 1788426213 | 18.89° C | 13% | 1015.5 hPa | 0 mm | - | 423 W/m² | - |
| 1788425913 | 18.33° C | 12% | 1015.2 hPa | 0 mm | - | 351 W/m² | - |
| 1788425601 | 17.22° C | 11% | 1015.3 hPa | 0 mm | - | 255 W/m² | - |
| 1788425302 | 17.78° C | 10% | 1015.4 hPa | 0 mm | - | 111 W/m² | - |
| 1788425001 | 17.22° C | 10% | 1015.4 hPa | 0 mm | - | 138 W/m² | - |
| 1788424689 | 17.22° C | 9% | 1015.4 hPa | 0 mm | - | 124 W/m² | - |
| 1788424389 | 17.22° C | 8% | 1015.3 hPa | 0 mm | - | 165 W/m² | - |
| 1788424089 | 17.22° C | 8% | 1015.1 hPa | 0 mm | - | 127 W/m² | - |
| 1788423789 | 17.22° C | 8% | 1015.3 hPa | 0 mm | - | 103 W/m² | - |
| 1788423496 | 16.67° C | 8% | 1015.2 hPa | 0 mm | - | 78 W/m² | - |
| 1788423190 | 16.67° C | 7% | 1015.1 hPa | 0 mm | - | 65 W/m² | - |
| 1788422889 | 16.67° C | 7% | 1015.1 hPa | 0 mm | - | 70 W/m² | - |
| 1788422589 | 17.22° C | 7% | 1014.9 hPa | 0 mm | - | 74 W/m² | - |
| 1788422290 | 16.67° C | 7% | 1015.1 hPa | 0 mm | - | 101 W/m² | - |
| 1788421989 | 16.67° C | 6% | 1015.2 hPa | 0 mm | - | 91 W/m² | - |
* Rain latest hour (hover to see other rain measurements)
** Current wind speed in m/s (hover to see current wind gust speed)